"Pseudo-MPEC" for A10ifCQ

Created 2019 Dec 4 5:07:01 UT using Find_Orb

Click here for an explanation of pseudo-MPECs

 
 Astrometry: 
     A10ifCQ  C2019 11 27.42915604 42 11.31 +48 00 53.1    ~BRCM 18.55oVNEOCPT08
     A10ifCQ  C2019 11 27.43795604 42 10.71 +48 00 18.3    ~BRCM 18.25oVNEOCPT08
     A10ifCQ  C2019 11 27.44117804 42 10.49 +48 00 05.2    ~BRCM 18.52oVNEOCPT08
     A10ifCQ  C2019 11 27.45185604 42 09.73 +47 59 20.8    ~BRCM 18.58oVNEOCPT08

Station data:
(T08) ATLAS-MLO, Mauna Loa  (N19.535772 W155.576400)  US/Hawaii.  Observers
   L. Denneau, A. Heinze, H. Weiland, J. Tonry, H. Flewelling, A.
   Fitzsimmons, D. Young, B. Stalder. Measurers L. Denneau, A. Heinze, J.
   Tonry. 0.5-m f/2.0 Schmidt + CCD.

Orbital elements:  A10ifCQ
   Perihelion 2019 Oct 5.739886 +/- 48.2 TT = 17:45:26 (JD 2458762.239886)
Epoch 2019 Nov 27.0 TT = JDT 2458814.5   Earth MOID: 0.3892   Ma: 0.0615
M  12.34018291 +/- 21               (J2000 ecliptic)          AutoNEOCP
n   0.23613004 +/- 0.251            Peri.  118.54881 +/- 90
a   2.59239925 +/- 1.89             Node   263.50511 +/- 46
e   0.5260965 +/- 0.266             Incl.   25.35264 +/- 12
P   4.17                   H 18.8   G  0.15   U 11.8  SR
q 1.22854682 +/- 0.274    Q 3.95625169 +/- 39.3
From 4 observations 2019 Nov. 27 (32.7 min); mean residual 0".34
Residuals in arcseconds: 
191127 T08  .08-  .51-    191127 T08  .10+  .47+    
191127 T08  .05+  .46+    191127 T08  .07-  .43-    

Ephemerides (geocentric):
Date (UTC) HH   RA              Dec         delta   r     elong  mag " sig PA
---- -- -- --  -------------   -----------  ------ ------ -----  --- ---- ---
2019 12 04 05  04 36 29.369   +40 19 32.60  .42140 1.3922 161.8 18.4  40d 149
2019 12 04 06  04 36 27.569   +40 16 44.55  .42154 1.3924 161.9 18.4  40d 149
2019 12 04 07  04 36 25.773   +40 13 56.57  .42167 1.3927 161.9 18.4  40d 149
2019 12 04 08  04 36 23.980   +40 11 08.63  .42181 1.3929 162.0 18.4  40d 149
2019 12 04 09  04 36 22.192   +40 08 20.75  .42195 1.3931 162.0 18.4  40d 149
2019 12 04 10  04 36 20.408   +40 05 32.93  .42208 1.3933 162.1 18.4  40d 149
2019 12 04 11  04 36 18.627   +40 02 45.17  .42222 1.3935 162.1 18.4  40d 149
2019 12 04 12  04 36 16.851   +39 59 57.46  .42236 1.3937 162.2 18.4  40d 149
2019 12 04 13  04 36 15.078   +39 57 09.81  .42250 1.3939 162.2 18.4  40d 149
2019 12 04 14  04 36 13.310   +39 54 22.21  .42263 1.3941 162.3 18.4  40d 149
2019 12 04 15  04 36 11.545   +39 51 34.68  .42277 1.3943 162.3 18.4  40d 149
2019 12 04 16  04 36 09.785   +39 48 47.20  .42291 1.3945 162.4 18.4  40d 149
2019 12 04 17  04 36 08.028   +39 45 59.78  .42306 1.3947 162.4 18.4  40d 149
2019 12 04 18  04 36 06.275   +39 43 12.43  .42320 1.3949 162.5 18.4  40d 149
2019 12 04 19  04 36 04.527   +39 40 25.13  .42334 1.3951 162.5 18.4  41d 149
2019 12 04 20  04 36 02.782   +39 37 37.89  .42348 1.3954 162.6 18.4  41d 149
2019 12 04 21  04 36 01.041   +39 34 50.72  .42362 1.3956 162.6 18.4  41d 149
2019 12 04 22  04 35 59.305   +39 32 03.61  .42377 1.3958 162.7 18.4  41d 149
2019 12 04 23  04 35 57.572   +39 29 16.55  .42391 1.3960 162.7 18.4  41d 149
2019 12 05 00  04 35 55.843   +39 26 29.57  .42405 1.3962 162.8 18.4  41d 149
2019 12 05 01  04 35 54.118   +39 23 42.64  .42420 1.3964 162.8 18.4  41d 149
2019 12 05 02  04 35 52.398   +39 20 55.78  .42434 1.3966 162.8 18.4  41d 149
2019 12 05 03  04 35 50.681   +39 18 08.99  .42449 1.3968 162.9 18.4  41d 149
2019 12 05 04  04 35 48.968   +39 15 22.26  .42464 1.3970 162.9 18.4  41d 149
2019 12 05 05  04 35 47.260   +39 12 35.59  .42478 1.3972 163.0 18.4  41d 149
2019 12 05 06  04 35 45.555   +39 09 48.99  .42493 1.3974 163.0 18.4  41d 148
2019 12 05 07  04 35 43.854   +39 07 02.46  .42508 1.3977 163.1 18.4  41d 148
2019 12 05 08  04 35 42.158   +39 04 15.99  .42523 1.3979 163.1 18.4  41d 148
2019 12 05 09  04 35 40.465   +39 01 29.59  .42538 1.3981 163.2 18.4  41d 148
2019 12 05 10  04 35 38.776   +38 58 43.26  .42553 1.3983 163.2 18.4  41d 148
2019 12 05 11  04 35 37.092   +38 55 57.00  .42568 1.3985 163.3 18.4  41d 148
2019 12 05 12  04 35 35.411   +38 53 10.80  .42583 1.3987 163.3 18.4  41d 148
2019 12 05 13  04 35 33.735   +38 50 24.68  .42598 1.3989 163.4 18.4  41d 148
2019 12 05 14  04 35 32.062   +38 47 38.62  .42613 1.3991 163.4 18.4  41d 148
2019 12 05 15  04 35 30.394   +38 44 52.64  .42628 1.3993 163.4 18.4  41d 148
2019 12 05 16  04 35 28.729   +38 42 06.72  .42644 1.3995 163.5 18.4  41d 147
2019 12 05 17  04 35 27.069   +38 39 20.88  .42659 1.3998 163.5 18.4  41d 147
2019 12 05 18  04 35 25.413   +38 36 35.11  .42674 1.4000 163.6 18.4  41d 147
2019 12 05 19  04 35 23.760   +38 33 49.41  .42690 1.4002 163.6 18.4  41d 147
2019 12 05 20  04 35 22.112   +38 31 03.78  .42705 1.4004 163.7 18.4  41d 147
2019 12 05 21  04 35 20.468   +38 28 18.23  .42721 1.4006 163.7 18.4  41d 147
2019 12 05 22  04 35 18.828   +38 25 32.74  .42736 1.4008 163.8 18.4  42d 147
2019 12 05 23  04 35 17.192   +38 22 47.34  .42752 1.4010 163.8 18.4  42d 146
2019 12 06 00  04 35 15.560   +38 20 02.01  .42768 1.4012 163.8 18.4  42d 146
2019 12 06 01  04 35 13.932   +38 17 16.75  .42783 1.4014 163.9 18.4  42d 146
2019 12 06 02  04 35 12.308   +38 14 31.57  .42799 1.4017 163.9 18.4  42d 146
2019 12 06 03  04 35 10.688   +38 11 46.46  .42815 1.4019 164.0 18.4  42d 146
2019 12 06 04  04 35 09.072   +38 09 01.43  .42831 1.4021 164.0 18.4  42d 146